TimeEST,TemperatureF,Dew PointF,Humidity,Sea Level PressureIn,VisibilityMPH,Wind Direction,Wind SpeedMPH,Gust SpeedMPH,PrecipitationIn,Events,Conditions,WindDirDegrees,DateUTC
12:53 AM,63.0,59.0,87,29.94,10.0,WNW,6.9,-,N/A,,Partly Cloudy,300,2011-11-11 05:53:00
1:53 AM,63.0,59.0,87,29.92,10.0,NW,6.9,-,N/A,,Partly Cloudy,310,2011-11-11 06:53:00
2:53 AM,64.0,61.0,90,29.92,10.0,NW,8.1,-,N/A,,Scattered Clouds,310,2011-11-11 07:53:00
3:53 AM,66.0,63.0,90,29.94,10.0,NNW,12.7,-,N/A,,Overcast,330,2011-11-11 08:53:00
4:53 AM,66.0,63.0,90,29.95,10.0,NNW,10.4,-,N/A,,Overcast,330,2011-11-11 09:53:00
5:53 AM,64.9,62.1,90,29.99,10.0,NNW,13.8,-,N/A,,Scattered Clouds,330,2011-11-11 10:53:00
6:53 AM,64.0,55.9,75,30.02,10.0,NNW,16.1,25.3,N/A,,Mostly Cloudy,340,2011-11-11 11:53:00
7:53 AM,63.0,52.0,67,30.06,10.0,NNW,12.7,-,N/A,,Mostly Cloudy,340,2011-11-11 12:53:00
8:53 AM,63.0,50.0,63,30.07,10.0,NNW,15.0,-,N/A,,Mostly Cloudy,340,2011-11-11 13:53:00
9:53 AM,63.0,50.0,63,30.09,10.0,NW,11.5,-,N/A,,Mostly Cloudy,320,2011-11-11 14:53:00
10:53 AM,66.0,53.1,63,30.08,10.0,North,9.2,-,N/A,,Mostly Cloudy,350,2011-11-11 15:53:00
11:53 AM,72.0,57.9,61,30.07,10.0,North,16.1,-,N/A,,Mostly Cloudy,350,2011-11-11 16:53:00
12:53 PM,73.0,59.0,61,30.05,10.0,NNW,13.8,21.9,N/A,,Mostly Cloudy,340,2011-11-11 17:53:00
1:53 PM,73.0,57.9,59,30.05,10.0,North,19.6,26.5,N/A,,Mostly Cloudy,350,2011-11-11 18:53:00
2:53 PM,73.0,57.0,57,30.05,10.0,North,19.6,-,N/A,,Mostly Cloudy,350,2011-11-11 19:53:00
3:53 PM,71.1,57.0,61,30.06,10.0,North,13.8,23.0,N/A,,Scattered Clouds,10,2011-11-11 20:53:00
4:53 PM,70.0,57.0,63,30.08,10.0,North,12.7,-,N/A,,Scattered Clouds,360,2011-11-11 21:53:00
5:53 PM,66.0,57.0,73,30.09,10.0,NNW,11.5,-,N/A,,Scattered Clouds,340,2011-11-11 22:53:00
6:53 PM,64.9,57.0,75,30.11,10.0,NNW,11.5,-,N/A,,Scattered Clouds,330,2011-11-11 23:53:00
7:53 PM,63.0,57.0,81,30.12,10.0,NW,8.1,-,N/A,,Scattered Clouds,320,2011-11-12 00:53:00
8:53 PM,62.1,57.0,84,30.14,10.0,NW,6.9,-,N/A,,Scattered Clouds,320,2011-11-12 01:53:00
9:53 PM,61.0,57.0,87,30.15,10.0,NNW,8.1,-,N/A,,Scattered Clouds,330,2011-11-12 02:53:00
10:53 PM,60.1,57.0,90,30.15,10.0,NW,4.6,-,N/A,,Scattered Clouds,320,2011-11-12 03:53:00
11:53 PM,59.0,57.0,93,30.15,10.0,WNW,3.5,-,N/A,,Mostly Cloudy,290,2011-11-12 04:53:00